Regional Weather Roundup
Issued by NWS Little Rock, AR

Home | Current Version | Previous Version | Graphics & Text | Print | Product List | Glossary On
Versions: 1 2 3 4 5 6 7 8 9 10 11 12 13 14 15 16 17 18 19 20 21 22 23 24 25 26 27 28 29 30 31 32 33 34 35 36 37 38 39 40 41 42 43 44 45 46 47 48 49 50
810
ASUS44 KLZK 191405
RWRLZK

WEATHER ROUNDUP FOR ARKANSAS
NATIONAL WEATHER SERVICE LITTLE ROCK AR
900 AM CDT THU APR 19 2018

NOTE: "FAIR" INDICATES FEW OR NO CLOUDS BELOW 12,000 FEET WITH NO
SIGNIFICANT WEATHER AND/OR OBSTRUCTIONS TO VISIBILITY.

ARZ001-003-010-029-191500-
NORTHWEST ARKANSAS

CITY           SKY/WX    TMP DP  RH WIND       PRES   REMARKS
FAYETTEVILLE   MOSUNNY   42  29  59 N9G20     30.37R
FORT SMITH     SUNNY     48  29  47 NW7       30.39R
HARRISON       CLOUDY    41  28  60 N13G22    30.33R
BENTONVILLE    PTSUNNY   41  28  60 N9        30.38R
ROGERS         CLOUDY    41  29  62 NW10      30.36R
SILOAM SPGS    PTSUNNY   42  29  59 N13       30.39R
SPRINGDALE     PTSUNNY   43  28  56 N12G23    30.37R
$$

ARZ004-005-016-191500-
NORTH CENTRAL ARKANSAS

CITY           SKY/WX    TMP DP  RH WIND       PRES   REMARKS
BATESVILLE     SUNNY     45  27  49 N12       30.32R
FLIPPIN        CLOUDY    42  28  57 NW10      30.35R
MTN HOME       CLOUDY    41  29  62 VRB6      30.32R
$$

ARZ040-041-191500-
WEST CENTRAL ARKANSAS

CITY           SKY/WX    TMP DP  RH WIND       PRES   REMARKS
MENA           SUNNY     50  30  46 N10       30.35R
MOUNT IDA      SUNNY     49  30  48 VRB3      30.32R
$$

ARZ009-017-025-026-028-191500-
NORTHEAST ARKANSAS

CITY           SKY/WX    TMP DP  RH WIND       PRES   REMARKS
CORNING        FAIR      45  28  53 N13G20    30.32R
JONESBORO      FAIR      45  29  53 N14G21    30.30R
NEWPORT        FAIR      45  26  47 N23       30.31
WALNUT RIDGE   FAIR      44  26  49 N21       30.31R
BLYTHEVILLE    CLOUDY    47  29  49 N22       30.29R
NW BLYTHEVILLE CLOUDY    45  30  57 N15G24    30.28R
$$

ARZ022-023-033-042-044-191500-
CENTRAL ARKANSAS

CITY           SKY/WX    TMP DP  RH WIND       PRES   REMARKS
LITTLE ROCK    SUNNY     49  27  42 N15       30.33R
N LITTLE ROCK    N/A     46  29  53 N8        30.29R
JACKSONVILLE   SUNNY     49  26  42 N12G17    30.32R
CONWAY           N/A     48  28  46 N14       30.33R
SEARCY         FAIR      47  28  47 N14G25    30.32R
HOT SPRINGS    SUNNY     50  30  46 NE9       30.33R
RUSSELLVILLE   SUNNY     48  27  44 MISG      30.35R
CLINTON        FAIR      45  27  49 NW13G23   30.33R
$$

ARZ036-191500-
EAST ARKANSAS

CITY           SKY/WX    TMP DP  RH WIND       PRES   REMARKS
WEST MEMPHIS   FAIR      48  31  51 N12       30.27R
$$

ARZ050-053-066-070-073-191500-
SOUTHWEST ARKANSAS

CITY           SKY/WX    TMP DP  RH WIND       PRES   REMARKS
ARKADELPHIA    FAIR      52  33  48 N9        30.33R
CAMDEN         FAIR      54  30  40 N12G18    30.30R
TEXARKANA      SUNNY     54  36  50 N9        30.33R
EL DORADO      FAIR      54  38  54 N10       30.30R
DE QUEEN       SUNNY     52  34  50 N12       30.34R
$$

ARZ056-057-069-191500-
SOUTHEAST ARKANSAS

CITY           SKY/WX    TMP DP  RH WIND       PRES   REMARKS
PINE BLUFF     FAIR      49  28  44 N21G28    30.32R
STUTTGART      FAIR      48  27  44 N24       30.31
MONTICELLO     FAIR      52  32  46 VRB7G20   30.28R

$$






USA.gov is the U.S. government's official web portal to all federal, state and local government web resources and services.